Retour au catalogue

WESTFORD NEEDLES

LostPO
NORAD 2377·DEBRIS·🇺🇸 United States

Lancé May 9, 1963 depuis Vandenberg Space Force Base

Loading…

Prochains Passages (prochaines 24 heures)

TLE

PériméSource: Space-Track

Époque: May 22, 2026, 04:08 UTC

1 02377U 63014X   26142.17251139 -.00000717  00000-0 -28915+0 0  9998
2 02377  87.4053 166.5370 0483010 301.2951  54.1467  8.68672115923749

Suivez WESTFORD NEEDLES en temps réel avec AllMySat

Download on the App Store